{"data":{"norad_id":63684,"intl_designator":"2025-085W","name":"STARLINK-33853","alt_names":[],"object_type":"PAYLOAD","status":"ACTIVE","operator":null,"country":"US","launch_date":"2025-04-28","launch_site_code":"AFETR","launch_vehicle":null,"mission":null,"orbit_class":"UNKNOWN","rcs_meters":null,"size_class":null,"mass_kg":null,"dimensions":null,"purposes":["comms"],"wikipedia_slug":null,"has_3d_model":false,"image_url":null,"decayed_at":null,"tle_current":{"epoch":"2026-05-25T04:35:20.875776Z","epoch_age_seconds":52471,"freshness":"FRESH","line1":"1 63684U 25085W   26145.19121384  .00010338  00000+0  38464-3 0  9996","line2":"2 63684  43.0026 318.5452 0001076 272.3942  87.6786 15.27582366 60570","mean_motion":15.27582366,"eccentricity":0.0001076,"inclination_deg":43.0026,"raan_deg":318.5452,"arg_perigee_deg":272.3942,"mean_anomaly_deg":87.6786,"bstar":0.00038464,"rev_number":6057,"period_min":94.266602708348,"perigee_km":482.30374853201,"apogee_km":483.78027425526,"semimajor_km":6861.1790113936,"source":"CELESTRAK","updated_at":"2026-05-25T13:38:20.094793Z"}}}